Latest Coastal Weather Observations for Gladstone

IDQ60701

Issued at 5:32 pm EST Wednesday 8 February 2023 (issued every 10 minutes, with the page automatically refreshed every 10 minutes)

About coastal observations | Map of coastal stations | Coastal observations for QLD | Marine services | Other Formats
Station Details ID: 039123 Name: GLADSTONE RADAR Lat: -23.86 Lon: 151.26 Height: 74.5 m
Data from the previous 72 hours. | See also: Recent months at Gladstone
Date/Time
EST
Wind Sea
Height
m
Swell Vis
km
Cloud Weather Temp
°C
Press
MSL
hPa
Rain since
9am
mm
Dir  Spd
kts
Gust
kts
Height
m
Period
s
Dir
08/05:30pm ESE 19 26 - - - - - - - 27.3 1007.0 0.0
08/05:10pm E 19 29 - - - - - - - 27.5 1006.8 0.0
08/05:00pm E 20 29 - - - - - - - 27.6 1006.7 0.0
08/04:32pm E 21 32 - - - - - - - 28.2 1006.7 0.0
08/04:30pm E 20 27 - - - - - - - 28.2 1006.7 0.0
08/04:00pm E 20 32 - - - - - - - 28.7 1006.6 0.0
08/03:36pm E 19 29 - - - - - - - 29.1 1006.6 0.0
08/03:30pm E 19 27 - - - - - - - 29.1 1006.6 0.0
08/03:00pm E 19 29 - - - - - - - 29.5 1006.8 0.0
08/02:52pm E 19 29 - - - - - - - 29.5 1006.9 0.0
08/02:30pm E 19 28 - - - - - - - 29.7 1007.0 0.0
08/02:02pm E 21 31 - - - - - - - 29.3 1007.2 0.0
08/02:00pm E 22 31 - - - - - - - 28.9 1007.2 0.0
08/01:30pm E 21 32 - - - - - - - 28.8 1007.5 0.0
08/01:12pm E 21 31 - - - - - - - 28.8 1007.5 0.0
08/01:00pm E 20 29 - - - - - - - 29.0 1007.7 0.0
08/12:34pm ESE 21 33 - - - - - - - 28.7 1007.8 0.0
08/12:30pm ESE 20 29 - - - - - - - 28.9 1007.9 0.0
08/12:09pm ESE 19 29 - - - - - - - 29.1 1007.9 0.0
08/12:00pm ESE 19 28 - - - - - - - 29.5 1008.1 0.0
08/11:52am ESE 18 28 - - - - - - - 28.6 1008.3 0.0
08/11:30am ESE 17 26 - - - - - - - 28.6 1008.5 0.0
08/11:00am E 17 27 - - - - - - - 28.2 1008.8 0.0
08/10:49am E 15 26 - - - - - - - 28.0 1008.8 0.0
08/10:30am ESE 17 23 - - - - - - - 28.3 1009.1 0.0
08/10:00am ESE 15 24 - - - - - - - 28.4 1009.2 0.0
08/09:33am ESE 15 25 - - - - - - - 27.5 1009.3 0.0
08/09:30am ESE 14 25 - - - - - - - 27.7 1009.2 0.0
08/09:00am ESE 16 27 - - - - - - - 27.2 1009.1 0.0
08/08:46am ESE 15 25 - - - - - - - 26.9 1009.3 0.0
08/08:30am ESE 14 21 - - - - - - - 26.5 1009.5 0.0
08/08:00am SE 11 22 - - - - - - - 26.0 1009.5 0.0
08/07:30am SE 11 17 - - - - - - - 24.8 1009.4 0.0
08/07:00am SE 9 15 - - - - - - - 23.9 1009.2 0.0
08/06:30am SSE 8 16 - - - - - - - 22.7 1009.1 0.0
08/06:00am SSE 9 15 - - - - - - - 22.0 1008.7 0.0
08/05:30am SSE 9 15 - - - - - - - 21.9 1008.6 0.0
08/05:00am SSE 8 13 - - - - - - - 21.9 1008.5 0.0
08/04:30am SSE 10 14 - - - - - - - 22.1 1008.3 0.0
08/04:00am SSE 8 13 - - - - - - - 22.1 1008.4 0.0
08/03:30am SSE 8 13 - - - - - - - 22.3 1008.5 0.0
08/03:00am SSE 8 14 - - - - - - - 22.4 1008.6 0.0
08/02:30am SE 9 14 - - - - - - - 22.5 1008.6 0.0
08/02:00am SE 10 16 - - - - - - - 22.6 1008.8 0.0
08/01:30am SE 10 16 - - - - - - - 22.8 1009.1 0.0
08/01:00am SSE 9 15 - - - - - - - 23.0 1009.6 0.0
08/12:30am SE 10 16 - - - - - - - 23.3 1010.1 0.0
08/12:00am SE 9 16 - - - - - - - 23.5 1010.5 0.0
 
Date/Time
EST
Wind Sea
Height
m
Swell Vis
km
Cloud Weather Temp
°C
Press
MSL
hPa
Rain since
9am
mm
Dir  Spd
kts
Gust
kts
Height
m
Period
s
Dir
07/11:30pm SSE 9 14 - - - - - - - 23.5 1010.7 0.0
07/11:00pm SSE 8 13 - - - - - - - 23.6 1011.0 0.0
07/10:30pm SE 10 17 - - - - - - - 24.4 1011.1 0.0
07/10:00pm SE 13 21 - - - - - - - 24.7 1011.2 0.0
07/09:30pm ESE 12 20 - - - - - - - 24.7 1011.0 0.0
07/09:00pm SE 14 25 - - - - - - - 25.1 1010.9 0.0
07/08:30pm ESE 13 22 - - - - - - - 25.3 1010.7 0.0
07/08:00pm ESE 16 25 - - - - - - - 25.6 1010.7 0.0
07/07:38pm ESE 19 29 - - - - - - - 25.9 1010.4 0.0
07/07:30pm ESE 21 30 - - - - - - - 26.0 1010.2 0.0
07/07:12pm ESE 18 28 - - - - - - - 26.1 1010.1 0.0
07/07:00pm ESE 21 27 - - - - - - - 26.3 1010.1 0.0
07/06:49pm E 19 29 - - - - - - - 26.3 1009.9 0.0
07/06:30pm E 21 28 - - - - - - - 26.3 1009.5 0.0
07/06:01pm E 21 31 - - - - - - - 26.8 1009.0 0.0
07/06:00pm E 21 30 - - - - - - - 26.8 1009.0 0.0
07/05:34pm E 16 27 - - - - - - - 27.1 1008.6 0.0
07/05:30pm E 16 23 - - - - - - - 27.2 1008.6 0.0
07/05:00pm E 19 29 - - - - - - - 27.4 1008.0 0.0
07/04:35pm E 19 29 - - - - - - - 27.9 1008.2 0.0
07/04:30pm E 21 29 - - - - - - - 27.8 1008.1 0.0
07/04:12pm E 17 27 - - - - - - - 28.5 1008.3 0.0
07/04:00pm E 19 26 - - - - - - - 28.7 1008.4 0.0
07/03:56pm E 17 27 - - - - - - - 28.9 1008.4 0.0
07/03:30pm E 19 27 - - - - - - - 29.2 1008.4 0.0
07/03:00pm E 17 28 - - - - - - - 29.3 1008.4 0.0
07/02:30pm E 17 27 - - - - - - - 29.9 1008.7 0.0
07/02:28pm E 17 27 - - - - - - - 29.8 1008.7 0.0
07/02:00pm E 17 26 - - - - - - - 30.3 1009.1 0.0
07/01:30pm E 19 27 - - - - - - - 30.1 1009.2 0.0
07/01:12pm E 17 28 - - - - - - - 30.4 1009.2 0.0
07/01:00pm E 20 26 - - - - - - - 29.9 1009.2 0.0
07/12:30pm E 18 25 - - - - - - - 30.1 1009.5 0.0
07/12:00pm E 15 23 - - - - - - - 30.5 1010.1 0.0
07/11:30am ESE 15 22 - - - - - - - 29.8 1010.7 0.0
07/11:00am ESE 13 21 - - - - - - - 30.0 1011.0 0.0
07/10:30am ESE 13 21 - - - - - - - 29.6 1011.2 0.0
07/10:00am SE 10 17 - - - - - - - 29.4 1011.7 0.0
07/09:30am SE 12 22 - - - - - - - 28.2 1011.4 0.0
07/09:00am ESE 13 22 - - - - - - - 27.7 1011.2 0.0
07/08:30am ESE 11 21 - - - - - - - 27.2 1011.1 0.0
07/08:00am SE 13 19 - - - - - - - 26.3 1011.0 0.0
07/07:30am SE 13 21 - - - - - - - 25.1 1011.2 0.0
07/07:00am SSE 10 17 - - - - - - - 24.2 1010.9 0.0
07/06:30am SSE 9 14 - - - - - - - 23.7 1010.4 0.0
07/06:00am SE 11 19 - - - - - - - 23.0 1010.2 0.0
07/05:30am SE 12 17 - - - - - - - 22.9 1009.9 0.0
07/05:00am SE 12 20 - - - - - - - 23.0 1009.7 0.0
07/04:30am SE 13 19 - - - - - - - 23.2 1009.8 0.0
07/04:00am SE 12 19 - - - - - - - 23.3 1009.9 0.0
07/03:30am SE 11 15 - - - - - - - 23.4 1010.2 0.0
07/03:00am SE 11 16 - - - - - - - 23.4 1010.2 0.0
07/02:30am SE 9 14 - - - - - - - 23.5 1010.2 0.0
07/02:00am SSE 9 14 - - - - - - - 23.6 1010.3 0.0
07/01:30am SSE 11 17 - - - - - - - 23.9 1010.5 0.0
07/01:00am SE 10 17 - - - - - - - 24.1 1010.9 0.0
07/12:30am SE 9 15 - - - - - - - 24.3 1011.1 0.0
07/12:00am SE 8 15 - - - - - - - 24.6 1011.6 0.0
 
Date/Time
EST
Wind Sea
Height
m
Swell Vis
km
Cloud Weather Temp
°C
Press
MSL
hPa
Rain since
9am
mm
Dir  Spd
kts
Gust
kts
Height
m
Period
s
Dir
06/11:30pm SE 12 21 - - - - - - - 25.0 1011.7 0.0
06/11:00pm SSE 10 19 - - - - - - - 25.3 1011.9 0.0
06/10:30pm SE 12 19 - - - - - - - 25.8 1012.1 0.0
06/10:00pm SE 12 21 - - - - - - - 25.9 1012.2 0.0
06/09:30pm SE 12 21 - - - - - - - 26.0 1012.1 0.0
06/09:00pm ESE 14 23 - - - - - - - 26.2 1011.7 0.0
06/08:34pm ESE 15 25 - - - - - - - 26.2 1011.8 0.0
06/08:30pm ESE 17 25 - - - - - - - 26.3 1011.8 0.0
06/08:25pm ESE 15 25 - - - - - - - 26.3 1011.7 0.0
06/08:00pm ESE 14 23 - - - - - - - 26.3 1011.8 0.0
06/07:30pm ESE 15 22 - - - - - - - 26.6 1011.7 0.0
06/07:11pm ESE 15 27 - - - - - - - 26.9 1011.1 0.0
06/07:00pm ESE 15 23 - - - - - - - 27.1 1011.0 0.0
06/06:48pm ESE 15 25 - - - - - - - 27.2 1010.9 0.0
06/06:30pm ESE 12 20 - - - - - - - 27.4 1010.6 0.0
06/06:00pm SE 10 16 - - - - - - - 27.6 1010.6 0.0
06/05:30pm SE 10 16 - - - - - - - 27.4 1010.3 0.0
06/05:00pm SE 13 19 - - - - - - - 26.8 1010.3 0.0
06/04:30pm SE 13 21 - - - - - - - 27.9 1010.2 0.0
06/04:00pm E 15 26 - - - - - - - 28.6 1010.2 0.0
06/03:56pm E 15 26 - - - - - - - 28.7 1010.1 0.0
06/03:30pm E 13 23 - - - - - - - 29.2 1010.2 0.0
06/03:00pm ESE 17 24 - - - - - - - 29.1 1010.4 0.0
06/02:30pm E 12 20 - - - - - - - 29.9 1010.6 0.0
06/02:00pm E 15 23 - - - - - - - 29.6 1010.7 0.0
06/01:54pm E 15 25 - - - - - - - 29.4 1010.8 0.0
06/01:30pm E 21 29 - - - - - - - 29.2 1010.7 0.0
06/01:20pm E 15 26 - - - - - - - 29.8 1010.8 0.0
06/01:00pm E 15 23 - - - - - - - 30.2 1010.8 0.0
06/12:30pm ESE 12 21 - - - - - - - 30.4 1011.1 0.0
06/12:00pm ESE 12 19 - - - - - - - 30.3 1011.5 0.0
06/11:30am E 16 23 - - - - - - - 30.5 1011.9 0.0
06/11:00am ESE 14 21 - - - - - - - 29.9 1012.0 0.0
06/10:30am ESE 11 18 - - - - - - - 30.0 1012.5 0.0
06/10:00am ESE 16 22 - - - - - - - 29.3 1012.6 0.0
06/09:30am ESE 11 20 - - - - - - - 29.6 1012.7 0.0
06/09:00am SE 11 16 - - - - - - - 29.4 1012.5 0.0
06/08:30am SSE 10 17 - - - - - - - 27.9 1012.4 0.0
06/08:00am SE 10 16 - - - - - - - 26.2 1012.5 0.0
06/07:30am SE 11 17 - - - - - - - 26.0 1012.5 0.0
06/07:00am SE 9 15 - - - - - - - 25.4 1012.5 0.0
06/06:30am SE 8 16 - - - - - - - 25.2 1012.3 0.0
06/06:00am SE 11 17 - - - - - - - 25.2 1011.8 0.0
06/05:30am SE 10 15 - - - - - - - 25.2 1011.4 0.0
06/05:00am SE 11 16 - - - - - - - 25.3 1011.2 0.0
06/04:30am SE 11 17 - - - - - - - 25.3 1011.1 0.0
06/04:00am SE 12 18 - - - - - - - 25.3 1010.4 0.0
06/03:30am SE 11 16 - - - - - - - 25.5 1010.3 0.0
06/03:00am SE 10 15 - - - - - - - 25.6 1010.1 0.0
06/02:30am SE 7 11 - - - - - - - 25.7 1010.5 0.0
06/02:00am SE 9 15 - - - - - - - 25.9 1010.9 0.0
06/01:30am SSE 9 14 - - - - - - - 25.9 1011.1 0.0
06/01:00am SE 8 12 - - - - - - - 25.9 1011.3 0.0
06/12:30am SSE 9 16 - - - - - - - 26.0 1011.6 0.0
06/12:00am SSE 7 12 - - - - - - - 26.3 1011.6 0.0
 
Date/Time
EST
Wind Sea
Height
m
Swell Vis
km
Cloud Weather Temp
°C
Press
MSL
hPa
Rain since
9am
mm
Dir  Spd
kts
Gust
kts
Height
m
Period
s
Dir
05/11:30pm ESE 8 16 - - - - - - - 26.7 1011.7 0.0
05/11:00pm ESE 12 19 - - - - - - - 26.8 1011.8 0.0
05/10:30pm ESE 13 22 - - - - - - - 26.9 1012.0 0.0
05/10:00pm SE 12 20 - - - - - - - 27.0 1012.1 0.0
05/09:30pm SE 12 18 - - - - - - - 27.0 1011.9 0.0
05/09:00pm ESE 10 16 - - - - - - - 27.1 1011.7 0.0
05/08:36pm ESE 17 27 - - - - - - - 27.2 1011.2 0.0
05/08:30pm ESE 19 27 - - - - - - - 27.2 1011.1 0.0
05/08:00pm ESE 17 27 - - - - - - - 27.4 1010.5 0.0
05/07:30pm ESE 18 29 - - - - - - - 27.5 1010.1 0.0
05/07:00pm E 16 27 - - - - - - - 27.6 1009.9 0.0
05/06:30pm E 17 25 - - - - - - - 27.4 1009.6 0.0
05/06:00pm E 19 26 - - - - - - - 27.6 1009.3 0.0

Other formats

Comma delimited format used in spreadsheet applications
http://www.bom.gov.au/fwo/IDQ60701/IDQ60701.94380.axf

JavaScript Object Notation format (JSON) in row-major order
http://www.bom.gov.au/fwo/IDQ60701/IDQ60701.94380.json

Data quality

Most of these data are generated automatically and are frequently updated. Quality checks on data are not normally performed. It is possible for incorrect values to appear. Refer to information at About Latest Weather Observations and please check the disclaimer before using these data.